This demonstration page uses our WeatherBlox Daily Observations layout. Learn more.

Left ArrowRight Arrow

39.12711, -84.51439

Hourly Observations for January 1, 2019

Temp ( °F °C ) Dew Point ( °F °C ) Humidity (%) Winds ( mph kmh ) Pressure ( in mb ) Visibility ( mi km ) Precip ( " mm )
12:53 am 00:53 Cloudy 51 10.6 41 5 69 69 WSW 15 24 29.91 1013 10 16 0.00 0.00
1:53 am 01:53 Cloudy 50 10 40 4.4 68 68 W 15 24 29.94 1014 10 16 0.00 0.00
2:25 am 02:25 Cloudy 50 10 40 4.4 68 68 WSW 13 20 29.97 1015 10 16 0.00 0.00
2:53 am 02:53 Cloudy 49 9.4 40 4.4 71 71 W 13 20 29.99 1016 10 16 0.00 0.00
3:53 am 03:53 Cloudy 48 8.9 40 4.4 74 74 W 15 24 30.03 1017 10 16 0.00 0.00
4:53 am 04:53 Cloudy 46 7.8 37 2.8 71 71 WNW 15 24 30.07 1018 10 16 0.00 0.00
5:53 am 05:53 Cloudy 45 7.2 37 2.8 74 74 WNW 7 11 30.10 1019 10 16 0.00 0.00
6:53 am 06:53 Cloudy 44 6.7 36 2.2 73 73 VRB 6 9 30.14 1021 10 16 0.00 0.00
7:53 am 07:53 Cloudy 44 6.7 38 3.3 79 79 W 5 7 30.18 1022 10 16 0.00 0.00
8:53 am 08:53 Cloudy 45 7.2 36 2.2 71 71 NW 6 9 30.20 1023 10 16 0.00 0.00
9:53 am 09:53 Cloudy 43 6.1 37 2.8 80 80 N 6 9 30.23 1024 10 16 0.00 0.00
10:53 am 10:53 Cloudy 44 6.7 37 2.8 76 76 N 5 7 30.25 1024 10 16 0.00 0.00
11:53 am 11:53 Cloudy 44 6.7 36 2.2 73 73 NW 3 6 30.24 1024 10 16 0.00 0.00
12:53 pm 12:53 Cloudy 44 6.7 37 2.8 76 76 NNW 7 11 30.23 1024 10 16 0.00 0.00
1:53 pm 13:53 Cloudy 44 6.7 37 2.8 76 76 NNW 3 6 30.23 1024 10 16 0.00 0.00
2:53 pm 14:53 Cloudy 44 6.7 36 2.2 73 73 N 6 9 30.23 1024 10 16 0.00 0.00
3:53 pm 15:53 Cloudy 43 6.1 37 2.8 80 80 NW 7 11 30.24 1024 8 13 0.00 0.00
4:53 pm 16:53 Cloudy 43 6.1 37 2.8 80 80 Calm 30.26 1025 10 16 0.00 0.00
5:53 pm 17:53 Cloudy 42 5.6 36 2.2 79 79 Calm 30.27 1025 10 16 0.00 0.00
6:53 pm 18:53 Cloudy 42 5.6 37 2.8 82 82 Calm 30.28 1025 10 16 0.00 0.00
7:53 pm 19:53 Cloudy 42 5.6 37 2.8 82 82 S 6 9 30.29 1026 10 16 0.00 0.00
8:53 pm 20:53 Cloudy 42 5.6 37 2.8 82 82 Calm 30.29 1026 10 16 0.00 0.00
9:53 pm 21:53 Cloudy 42 5.6 38 3.3 85 85 Calm 30.27 1025 10 16 0.00 0.03
10:53 pm 22:53 Cloudy 42 5.6 38 3.3 85 85 Calm 30.27 1025 10 16 0.00 0.00
11:53 pm 23:53 Cloudy 42 5.6 37 2.8 82 82 N 3 6 30.28 1025 10 16 0.00 0.00

Powered by AerisWeather